Torna al catalogo

STARLINK-5951

AttivoComunicazioniVLEO
NORAD 56918·PAYLOAD·🇺🇸 United States

Lanciato Jun 12, 2023 da Cape Canaveral Space Force Station

Loading…

Prossimi Passaggi (prossime 24 ore)

TLE

AggiornatoSource: CelesTrak SupGP

Epoca: Sep 14, 2026, 13:44 UTC

1 56918C 23083AU  26257.57270833 -.00005465  00000+0 -19796-3 0  2575
2 56918  43.0011  83.7560 0001317 247.8584 260.5998 15.27577873    11

Traccia STARLINK-5951 in tempo reale con AllMySat

Download on the App Store